Tracking 25612 objects as of 19-May-2022
HD Live streaming from Space Station
objects crossing your sky now

COSMOS 1375 DEB

Track COSMOS 1375 DEB now!
10-day predictions


NORAD ID: 16376
Int'l Code: 1982-055Q
Perigee: 916.9 km
Apogee: 931.7 km
Inclination: 65.8 °
Period: 103.4 minutes
Semi major axis: 7295 km
RCS: 0.0298 m2 (small)
Launch date: June 6, 1982
Source: Commonwealth of Independent States (former USSR) (CIS)
Launch site: PLESETSK MISSILE AND SPACE COMPLEX (PKMTR)

Note: This is SATELLITE DEBRIS
aabbcc
Your satellite tracking list
Your tracking list is empty




NASA's NSSDC Master Catalog

Two Line Element Set (TLE):
1 16376U 82055Q   22139.07099339  .00000668  00000-0  57511-3 0  9992
2 16376  65.8263 152.9183 0010151  90.1017 303.6097 13.93289658852478
Source of the keplerian elements: AFSPC